Retour au catalogue

THOR AGENA D R/B

ActifPO
NORAD 815·ROCKET BODY·🇺🇸 United States

Lancé Jun 18, 1964 depuis Vandenberg Space Force Base

Loading…

Prochains Passages (prochaines 24 heures)

TLE

FraisSource: Space-Track

Époque: Sep 14, 2026, 06:44 UTC

1 00815U 64031C   26257.28062664  .00000104  00000-0  63127-4 0  9992
2 00815  99.8316 218.7373 0012291  49.4029 310.8216 14.28533559233729

Suivez THOR AGENA D R/B en temps réel avec AllMySat

Download on the App Store